[[{"header":{"parameterUnit":"m.s-1","parameterCategory":2,"la1":30.2991,"la2":30.254,"lo1":-89.0895,"lo2":-89.0444,"dy":0.0017,"dx":0.0017,"nx":28,"ny":28,"refTime":"2024-04-21T21:00:00:Z","depth":"0","parameterNumber":2,"parameterNumberName":"U-component_of_CURRENTS"},"data":[0,0,0,0,0,0,0,0,0,0,0,0,0,0,0,0,0,0,0,0,0,0,0,0,0,0,0,0,0,0,0,0,0,0,0,0,0,0,0,0,0,0,0,0,0,0,0,0,0,0,0,0,0,0,0,0,0,0,0.1919,0.192,0,0.1973,0.1973,0.1974,0.1987,0.1986,0.1986,0.1985,0.2032,0.2033,0.2035,0,0,0,0,0,0,0,0,0,0,0,0,0,0.1875,0.1875,0.1919,0.192,0.192,0.1973,0.1973,0.1974,0.1987,0.1986,0.1986,0.1985,0.2031,0.2033,0.2035,0,0,0,0,0,0,0,0,0,0,0,0,0,0.1908,0.1875,0.1919,0.1933,0.1934,0.1973,0.1974,0.1974,0.1987,0.1986,0.1986,0.1985,0.2031,0.2033,0.2035,0.2062,0,0,0.2043,0.2044,0,0,0,0,0,0,0,0,0.1906,0.191,0.193,0.1932,0.1934,0.1972,0.1975,0.2003,0.1987,0.1967,0.1985,0.1985,0.2011,0.2015,0.2027,0.2064,0.2066,0.2043,0.2044,0.2045,0.2046,0,0,0,0,0,0,0,0.1904,0.1908,0.1941,0.1931,0.1933,0.1952,0.1956,0.1981,0.1992,0.1969,0.197,0.1975,0.2012,0.2025,0.2028,0.2067,0.2043,0.2045,0.2046,0.2047,0.216,0.2161,0,0,0,0,0,0,0.1895,0.1905,0.1939,0.1942,0.1918,0.1953,0.1958,0.1961,0.1992,0.1996,0.1976,0.1976,0.2021,0.2026,0.203,0.2092,0.2045,0.2048,0.2049,0.2158,0.216,0.2162,0,0,0,0,0,0,0.1893,0.1897,0.1937,0.1925,0.1931,0.1954,0.1958,0.1962,0.1976,0.1997,0.2001,0.1986,0.2021,0.2027,0.2064,0.2092,0.2049,0.2051,0.2156,0.2159,0.2161,0.2197,0,0,0,0,0,0,0.1892,0.1896,0.1902,0.1924,0.1931,0.1968,0.1959,0.1963,0.1981,0.1981,0.2008,0.2011,0.2021,0.206,0.2066,0.2095,0.2053,0.2154,0.2157,0.216,0.2194,0.22,0.2206,0,0,0,0,0,0.189,0.1903,0.1902,0.1907,0.1937,0.1969,0.1975,0.199,0.1982,0.1998,0.2016,0.2011,0.2083,0.2064,0.207,0.21,0.2153,0.2157,0.216,0.2191,0.2199,0.2205,0,0,0,0,0,0,0.189,0.1906,0.1906,0.1923,0.1946,0.1971,0.1989,0.1993,0.202,0.2018,0.203,0.2036,0.2081,0.2087,0.2065,0.2142,0.2117,0.2122,0.2139,0.2146,0.2152,0.2123,0.2055,0,0,0,0,0,0.1891,0.1902,0.1923,0.1938,0.1949,0.1967,0.1983,0.1991,0.2014,0.2025,0.2043,0.2067,0.2102,0.2119,0.2147,0.2187,0.2214,0.2212,0.2218,0.2223,0.2205,0.2263,0.2272,0.2173,0.2173,0.2173,0,0,0.1894,0.1906,0.1912,0.1938,0.1956,0.198,0.1976,0.2002,0.2021,0.2027,0.2062,0.2089,0.2118,0.2167,0.2187,0.2173,0.2279,0.2227,0.2231,0.221,0.2268,0.2277,0.2286,0.2175,0.2175,0.2175,0,0,0.1908,0.1917,0.1931,0.1952,0.1979,0.1995,0.2001,0.2029,0.2041,0.2079,0.2093,0.213,0.2178,0.2206,0.2226,0.228,0.2308,0.2299,0.2305,0.2363,0.2371,0.2379,0.248,0.2496,0.2301,0.2301,0.2301,0,0.1909,0.1928,0.1943,0.1965,0.1979,0.1999,0.2018,0.2044,0.208,0.2094,0.2093,0.2174,0.2194,0.2257,0.2273,0.2292,0.2344,0.2275,0.237,0.2377,0.2384,0.2486,0.2503,0.2303,0.2303,0.2303,0.2302,0,0.1935,0.195,0.1964,0.1992,0.2013,0.2036,0.2064,0.2089,0.2102,0.2126,0.2183,0.2221,0.2265,0.2288,0.2293,0.2361,0.2392,0.2372,0.2348,0.2396,0.2501,0.2518,0.2306,0.2305,0.2305,0.2304,0,0,0.1924,0.1969,0.1972,0.1986,0.2024,0.2044,0.2079,0.2116,0.215,0.2183,0.2235,0.2281,0.2299,0.2321,0.2349,0.2389,0.2498,0.2397,0.2399,0.2491,0.2672,0.2718,0.2742,0.2499,0.2501,0.2502,0.2746,0,0.1933,0.1969,0.1989,0.2024,0.2043,0.2068,0.2104,0.2141,0.2183,0.2247,0.2281,0.2351,0.2317,0.2363,0.2391,0.2482,0.2536,0.2436,0.2615,0.2621,0.265,0.2759,0.2698,0.291,0.2763,0.2765,0.2767,0,0.1943,0.1966,0.1993,0.2037,0.2048,0.2072,0.2128,0.2169,0.2253,0.229,0.2344,0.2395,0.2477,0.2438,0.2583,0.2528,0.2588,0.2642,0.2653,0.2682,0.2696,0.2828,0.2946,0.2843,0.2794,0.2792,0.279,0,0.1919,0.1966,0.1983,0.1998,0.2054,0.2068,0.2104,0.2176,0.2233,0.2337,0.2416,0.2485,0.2586,0.2632,0.2745,0.2676,0.2924,0.285,0.295,0.2957,0.2928,0.2928,0.2951,0.2934,0.2933,0.2932,0.2932,0,0.1914,0.1931,0.1975,0.1985,0.2014,0.2062,0.2121,0.2164,0.2279,0.2376,0.2445,0.2562,0.2638,0.2787,0.2815,0.2979,0.2992,0.2979,0.3022,0.2947,0.2946,0.287,0.2815,0.2942,0.2939,0.2938,0.2936,0,0.1887,0.1914,0.1937,0.1986,0.2,0.2024,0.2122,0.2185,0.2301,0.2443,0.2494,0.2677,0.2875,0.2981,0.3135,0.3126,0.3165,0.3283,0.3219,0.3247,0.3173,0.3123,0.3083,0.2988,0.3412,0.3414,0.3417,0,0.1884,0.1895,0.1922,0.1935,0.1955,0.2009,0.2054,0.2165,0.225,0.2514,0.259,0.2851,0.3003,0.329,0.3363,0.349,0.3315,0.3478,0.3293,0.3191,0.3167,0.298,0.2886,0.3306,0.3307,0.3308,0.3309,0,0.1885,0.1885,0.19,0.1933,0.1963,0.2007,0.2089,0.2155,0.2325,0.2464,0.2691,0.2849,0.3173,0.3304,0.351,0.3546,0.3305,0.3498,0.3395,0.3096,0.289,0.2813,0.3155,0.3317,0.3316,0.3315,0.3315,0.3314,0.1893,0.1899,0.1928,0.1955,0.1977,0.2021,0.2037,0.2154,0.2287,0.2484,0.2691,0.2897,0.318,0.3459,0.3478,0.3487,0.3391,0.3367,0.3332,0.3163,0.2993,0.338,0.3571,0.3572,0.3572,0.3573,0.3573,0,0.1934,0.1944,0.1967,0.1988,0.1989,0.2009,0.2073,0.2093,0.22,0.2418,0.26,0.2942,0.3119,0.3284,0.3441,0.3334,0.3107,0.3233,0.2923,0.2847,0.3222,0.3136,0.3236,0.3236,0.3236,0.3236,0.3236,0.3236,0.1965,0.1994,0.2003,0.2011,0.2002,0.1984,0.1988,0.2023,0.2134,0.2338,0.2522,0.2724,0.3059,0.3286,0.3254,0.3176,0.2864,0.2786,0.2705,0.2949,0.2954,0.2959,0.2862,0.2903,0.2902,0.2197,0.2192,0.2188]},{"header":{"parameterUnit":"m.s-1","parameterCategory":2,"la1":30.2991,"la2":30.254,"lo1":-89.0895,"lo2":-89.0444,"dy":0.0017,"dx":0.0017,"nx":28,"ny":28,"refTime":"2024-04-21T21:00:00:Z","depth":"0","parameterNumber":3,"parameterNumberName":"V-component_of_CURRENTS"},"data":[0,0,0,0,0,0,0,0,0,0,0,0,0,0,0,0,0,0,0,0,0,0,0,0,0,0,0,0,0,0,0,0,0,0,0,0,0,0,0,0,0,0,0,0,0,0,0,0,0,0,0,0,0,0,0,0,0,0,0.003,0.0029,0,-0.0035,-0.0036,-0.0036,-0.0088,-0.0088,-0.0089,-0.0089,-0.0199,-0.0201,-0.0204,0,0,0,0,0,0,0,0,0,0,0,0,0,0.0067,0.0067,0.003,0.0029,0.0028,-0.0035,-0.0036,-0.0037,-0.0088,-0.0088,-0.0089,-0.0089,-0.0198,-0.0201,-0.0204,0,0,0,0,0,0,0,0,0,0,0,0,0,0.0031,0.0067,0.003,-0.0004,-0.0008,-0.0035,-0.0036,-0.0037,-0.0088,-0.0088,-0.0089,-0.009,-0.0197,-0.02,-0.0204,-0.0214,0,0,-0.0216,-0.0217,0,0,0,0,0,0,0,0,0.0033,0.003,0.0002,-0.0002,-0.0006,-0.0053,-0.0063,-0.0098,-0.0087,-0.0058,-0.0089,-0.009,-0.0153,-0.0161,-0.0172,-0.0219,-0.0224,-0.0216,-0.0218,-0.022,-0.0221,0,0,0,0,0,0,0,0.0036,0.0032,0.0003,0.0001,-0.0004,-0.0031,-0.0036,-0.007,-0.0102,-0.0061,-0.0064,-0.007,-0.0156,-0.0168,-0.0175,-0.0225,-0.0216,-0.0219,-0.0221,-0.0223,-0.0293,-0.0293,0,0,0,0,0,0,0.0048,0.0035,0.0006,0.0002,0.0013,-0.0031,-0.0037,-0.0038,-0.0101,-0.0111,-0.007,-0.0072,-0.0161,-0.017,-0.0179,-0.0202,-0.022,-0.0223,-0.0225,-0.0293,-0.0293,-0.0293,0,0,0,0,0,0,0.0049,0.0046,0.0008,0.0017,0.001,-0.003,-0.0031,-0.0039,-0.0052,-0.0107,-0.0118,-0.0075,-0.0162,-0.0174,-0.0209,-0.0207,-0.0225,-0.0228,-0.0294,-0.0293,-0.0293,-0.0245,0,0,0,0,0,0,0.0051,0.0047,0.0051,0.0018,0.001,-0.0002,-0.0031,-0.004,-0.0055,-0.0059,-0.0116,-0.0127,-0.0163,-0.0203,-0.0213,-0.0212,-0.0231,-0.0294,-0.0294,-0.0293,-0.0247,-0.0242,-0.0239,0,0,0,0,0,0.0052,0.0063,0.0052,0.0048,0.0017,-0.0001,-0.0007,-0.0039,-0.0054,-0.0055,-0.0096,-0.0125,-0.0205,-0.0206,-0.0217,-0.0218,-0.0295,-0.0294,-0.0293,-0.0248,-0.0243,-0.0239,0,0,0,0,0,0,0.0083,0.0058,0.0045,0.0048,0.0028,-0.0009,-0.0012,-0.0033,-0.0066,-0.0071,-0.0124,-0.0138,-0.0167,-0.0196,-0.0195,-0.0234,-0.0253,-0.0254,-0.0215,-0.0211,-0.0207,-0.0194,-0.0234,0,0,0,0,0,0.0092,0.0092,0.0064,0.0067,0.0061,0.0026,0.0015,-0.0006,-0.0038,-0.0053,-0.0093,-0.0134,-0.0171,-0.0193,-0.0227,-0.025,-0.0269,-0.0256,-0.0252,-0.0249,-0.0245,-0.028,-0.0279,-0.029,-0.029,-0.029,0,0,0.0103,0.0091,0.009,0.0073,0.0055,0.005,0.0017,0.0007,-0.0001,-0.006,-0.0082,-0.0121,-0.0173,-0.02,-0.0215,-0.0226,-0.0249,-0.0248,-0.0244,-0.0243,-0.0279,-0.0278,-0.0277,-0.0289,-0.0289,-0.0289,0,0,0.0127,0.0118,0.0125,0.0113,0.0093,0.0072,0.0073,0.0041,0.0023,-0.0002,-0.0047,-0.0085,-0.0136,-0.0176,-0.0203,-0.0196,-0.0226,-0.0203,-0.0179,-0.0212,-0.0212,-0.0211,-0.0208,-0.0208,-0.0203,-0.0203,-0.0203,0,0.0141,0.0146,0.0125,0.0129,0.0123,0.0087,0.0092,0.0071,0.003,0.0016,-0.0,-0.0078,-0.0125,-0.0166,-0.0168,-0.0189,-0.0199,-0.0193,-0.0207,-0.0207,-0.0208,-0.0205,-0.0206,-0.0201,-0.0201,-0.0201,-0.0202,0,0.0167,0.0171,0.0177,0.0169,0.0161,0.0162,0.0133,0.0121,0.0095,0.0067,0.0029,-0.0032,-0.0078,-0.01,-0.0138,-0.0165,-0.0165,-0.0196,-0.0218,-0.0204,-0.0201,-0.0203,-0.0197,-0.0198,-0.0199,-0.02,0,0,0.0195,0.0195,0.0196,0.0201,0.0183,0.018,0.0172,0.015,0.0154,0.0102,0.0102,0.0015,-0.0015,-0.0046,-0.0095,-0.0133,-0.0147,-0.0163,-0.0166,-0.0157,-0.0191,-0.0141,-0.0138,-0.0182,-0.0183,-0.0183,-0.0178,0,0.022,0.0241,0.023,0.0247,0.0255,0.0227,0.0228,0.0204,0.0182,0.0178,0.0105,0.0094,0.0006,0.0005,-0.0059,-0.0112,-0.0153,-0.0144,-0.0209,-0.021,-0.0166,-0.014,-0.0138,-0.0129,-0.018,-0.018,-0.018,0,0.0246,0.0257,0.0284,0.0292,0.0294,0.0302,0.0303,0.0301,0.0277,0.0268,0.0225,0.0186,0.0131,0.0067,-0.0049,-0.0036,-0.0115,-0.0168,-0.017,-0.0143,-0.0164,-0.0157,-0.0131,-0.0342,-0.0183,-0.0183,-0.0182,0,0.0277,0.0292,0.0317,0.0319,0.0325,0.0336,0.0341,0.0329,0.0372,0.0349,0.0408,0.0283,0.0309,0.0152,0.0045,-0.0003,-0.0056,-0.0136,-0.0171,-0.0167,-0.0188,-0.0184,-0.0373,-0.023,-0.023,-0.023,-0.023,0,0.0308,0.0327,0.034,0.0356,0.0396,0.0385,0.0451,0.043,0.0484,0.0594,0.0476,0.0571,0.0337,0.0288,0.0104,-0.0001,-0.0013,-0.0151,-0.0164,-0.0166,-0.0161,-0.0364,-0.047,-0.023,-0.023,-0.023,-0.023,0,0.0347,0.0348,0.0387,0.0408,0.0417,0.0456,0.0556,0.0632,0.0658,0.0815,0.0841,0.0816,0.0765,0.0538,0.0344,0.0153,-0.0101,-0.0048,-0.0008,-0.0017,-0.0278,-0.0378,-0.0514,-0.0593,-0.0109,-0.0108,-0.0106,0,0.0375,0.0399,0.0438,0.0491,0.0511,0.0584,0.0666,0.0707,0.084,0.1009,0.1128,0.1123,0.1172,0.0896,0.0538,0.0229,0.0009,0.0027,-0.009,-0.0276,-0.0399,-0.0467,-0.053,-0.0094,-0.0093,-0.0092,-0.0092,0,0.0451,0.0464,0.0508,0.0626,0.0714,0.0825,0.0964,0.1098,0.123,0.1375,0.16,0.1646,0.1401,0.1112,0.0682,0.0433,-0.0105,0.0038,-0.0191,-0.0423,-0.0475,-0.056,-0.0092,-0.0084,-0.0085,-0.0085,-0.0086,-0.0086,0.0538,0.0604,0.0703,0.0819,0.0916,0.1124,0.1273,0.1467,0.1712,0.1985,0.1966,0.2054,0.1576,0.0994,0.0649,-0.0015,-0.0014,-0.0251,-0.0358,-0.041,-0.0495,0.0026,0.0041,0.0041,0.0041,0.0041,0.0041,0,0.0708,0.0801,0.0914,0.11,0.1263,0.1267,0.1527,0.1708,0.2038,0.2215,0.2369,0.2142,0.1579,0.0947,0.0077,-0.0363,-0.0554,-0.061,-0.0771,-0.0819,-0.0399,-0.0411,-0.0448,-0.0448,-0.0448,-0.0448,-0.0447,-0.0447,0.0831,0.1003,0.1079,0.1413,0.1531,0.1779,0.1936,0.2156,0.2306,0.2532,0.2538,0.2484,0.1952,0.0455,-0.059,-0.0834,-0.1133,-0.1158,-0.1303,-0.1102,-0.1079,-0.1058,-0.11,-0.128,-0.1281,-0.1695,-0.17,-0.1703]}],[{"header":{"parameterUnit":"m.s-1","parameterCategory":2,"la1":30.2991,"la2":30.254,"lo1":-89.0895,"lo2":-89.0444,"dy":0.0017,"dx":0.0017,"nx":28,"ny":28,"refTime":"2024-04-21T21:00:00:Z","depth":"2","parameterNumber":2,"parameterNumberName":"U-component_of_CURRENTS"},"data":[0,0,0,0,0,0,0,0,0,0,0,0,0,0,0,0,0,0,0,0,0,0,0,0,0,0,0,0,0,0,0,0,0,0,0,0,0,0,0,0,0,0,0,0,0,0,0,0,0,0,0,0,0,0,0,0,0,0,0.1831,0.1832,0,0.1883,0.1884,0.1884,0.1902,0.1902,0.1901,0.1901,0.1965,0.1967,0.1969,0,0,0,0,0,0,0,0,0,0,0,0,0,0.1784,0.1785,0.1831,0.1832,0.1832,0.1883,0.1884,0.1885,0.1902,0.1902,0.1901,0.1901,0.1965,0.1967,0.1969,0,0,0,0,0,0,0,0,0,0,0,0,0,0.1817,0.1785,0.1831,0.1847,0.1849,0.1883,0.1884,0.1885,0.1902,0.1902,0.1901,0.1901,0.1964,0.1967,0.1969,0.1992,0,0,0.1978,0.1979,0,0,0,0,0,0,0,0,0.1815,0.1818,0.1844,0.1846,0.1849,0.1886,0.1891,0.1921,0.1902,0.1882,0.1901,0.1901,0.194,0.1945,0.1955,0.1995,0.1998,0.1978,0.198,0.1981,0.1982,0,0,0,0,0,0,0,0.1813,0.1817,0.1851,0.1845,0.1848,0.1865,0.1869,0.1897,0.1912,0.1883,0.1885,0.1891,0.1942,0.1952,0.1956,0.1999,0.1978,0.1981,0.1982,0.1983,0.2105,0.2106,0,0,0,0,0,0,0.1805,0.1814,0.185,0.1853,0.1831,0.1866,0.1871,0.1874,0.1911,0.1917,0.1892,0.1892,0.1947,0.1953,0.1959,0.2031,0.1981,0.1984,0.1985,0.2103,0.2105,0.2107,0,0,0,0,0,0,0.1804,0.1808,0.1847,0.1835,0.1842,0.1867,0.1871,0.1875,0.1891,0.1917,0.1923,0.1903,0.1947,0.1955,0.1994,0.2032,0.1985,0.1988,0.2102,0.2104,0.2106,0.2149,0,0,0,0,0,0,0.1802,0.1807,0.1813,0.1835,0.1842,0.1876,0.1871,0.1876,0.1895,0.1896,0.1929,0.1935,0.1948,0.199,0.1997,0.2035,0.199,0.21,0.2103,0.2105,0.2146,0.2152,0.2158,0,0,0,0,0,0.1801,0.1813,0.1813,0.1818,0.1847,0.1877,0.1883,0.1899,0.1896,0.191,0.1932,0.1934,0.2013,0.1993,0.2001,0.2041,0.2098,0.2102,0.2105,0.2143,0.2151,0.2158,0,0,0,0,0,0,0.1801,0.1816,0.1817,0.1834,0.1855,0.188,0.1898,0.1903,0.1931,0.1934,0.195,0.1958,0.2008,0.2017,0.1994,0.2085,0.2058,0.2063,0.2084,0.2092,0.2098,0.208,0.1992,0,0,0,0,0,0.1801,0.1812,0.183,0.1846,0.1857,0.1876,0.1891,0.1902,0.1926,0.1937,0.1959,0.199,0.2028,0.2052,0.2081,0.2129,0.2147,0.2161,0.2168,0.2173,0.2165,0.2221,0.2231,0.2118,0.2118,0.2118,0,0,0.1806,0.1817,0.1823,0.1847,0.1865,0.189,0.1885,0.1912,0.194,0.1941,0.1987,0.201,0.2044,0.21,0.2124,0.2113,0.2221,0.2177,0.2182,0.217,0.2225,0.2236,0.2246,0.2121,0.212,0.212,0,0,0.1824,0.183,0.1845,0.1862,0.1889,0.1907,0.1914,0.1942,0.1962,0.2005,0.2018,0.2057,0.2112,0.2146,0.217,0.2228,0.2249,0.2247,0.2273,0.2328,0.2338,0.2346,0.2409,0.2423,0.2256,0.2256,0.2256,0,0.1828,0.1846,0.1857,0.1877,0.1894,0.1913,0.1937,0.1968,0.2006,0.2027,0.2026,0.211,0.2135,0.2207,0.2229,0.2243,0.2279,0.2241,0.2336,0.2344,0.2352,0.2415,0.2429,0.2259,0.2258,0.2258,0.2258,0,0.1855,0.1871,0.1884,0.1913,0.1936,0.1961,0.1996,0.2026,0.2049,0.2076,0.2141,0.2176,0.2224,0.225,0.2258,0.2335,0.2346,0.2333,0.2314,0.2366,0.2429,0.2443,0.2262,0.2261,0.226,0.226,0,0,0.1854,0.1894,0.1896,0.1911,0.1953,0.1974,0.2026,0.2075,0.2118,0.2155,0.2214,0.2272,0.2282,0.2309,0.2333,0.238,0.2475,0.2382,0.2384,0.244,0.2615,0.2573,0.2585,0.2485,0.2487,0.2489,0.2646,0,0.187,0.1905,0.1925,0.1965,0.1986,0.2016,0.2067,0.2114,0.2165,0.223,0.227,0.234,0.2312,0.2354,0.239,0.2464,0.2511,0.2434,0.2559,0.2562,0.2514,0.2598,0.2391,0.2508,0.266,0.2662,0.2664,0,0.1884,0.1906,0.194,0.1988,0.2001,0.2031,0.2105,0.2156,0.2246,0.2289,0.2345,0.2388,0.2473,0.2439,0.2564,0.2522,0.2561,0.2603,0.261,0.2558,0.2546,0.2476,0.2528,0.2687,0.2685,0.2684,0.2682,0,0.1867,0.1915,0.194,0.1954,0.2015,0.204,0.2083,0.2168,0.2231,0.2337,0.2407,0.248,0.2565,0.2608,0.2689,0.2642,0.2831,0.2778,0.2773,0.2772,0.2609,0.2589,0.2848,0.2848,0.2847,0.2847,0.2846,0,0.1866,0.1886,0.1933,0.1941,0.1985,0.2035,0.2106,0.2159,0.2273,0.2362,0.2437,0.2535,0.2614,0.2727,0.2745,0.2826,0.2881,0.2793,0.2812,0.2622,0.2602,0.2752,0.2738,0.2853,0.2851,0.285,0.2849,0,0.1842,0.187,0.1898,0.1953,0.1972,0.2005,0.2108,0.2175,0.2287,0.2414,0.2461,0.2625,0.2765,0.2844,0.2964,0.2927,0.299,0.2996,0.2775,0.2763,0.2874,0.2861,0.2994,0.2994,0.2994,0.2994,0.2994,0,0.1843,0.1855,0.1891,0.1912,0.1935,0.1997,0.2051,0.2159,0.2241,0.2462,0.2527,0.2721,0.2826,0.3004,0.2992,0.3038,0.3053,0.2853,0.2695,0.2885,0.2891,0.2878,0.2866,0.2517,0.2513,0.251,0.2507,0,0.185,0.1853,0.1872,0.1914,0.1955,0.2003,0.2088,0.2153,0.2305,0.2414,0.2591,0.2702,0.2869,0.2835,0.2904,0.2879,0.2819,0.2786,0.3079,0.2501,0.2445,0.2447,0.2449,0.2478,0.2481,0.2483,0.2485,0.2486,0.1867,0.1877,0.1909,0.1946,0.1985,0.2034,0.2066,0.2147,0.2257,0.2372,0.2525,0.259,0.2655,0.264,0.26,0.2557,0.271,0.2567,0.2573,0.2584,0.2489,0.2435,0.2451,0.2453,0.2455,0.2457,0.2459,0,0.1909,0.1928,0.1959,0.1997,0.2024,0.2046,0.2118,0.2098,0.2167,0.225,0.233,0.2183,0.2216,0.2276,0.2176,0.2186,0.212,0.209,0.1981,0.2014,0.2043,0.1914,0.1726,0.1723,0.1721,0.1719,0,0,0.194,0.1975,0.1985,0.2043,0.2063,0.2068,0.2092,0.1991,0.2003,0.1935,0.1927,0.209,0.2224,0.1934,0.192,0.1813,0.1887,0.1745,0.2343,0.225,0.2274,0.2342,0.2187,0,0,0,0,0]},{"header":{"parameterUnit":"m.s-1","parameterCategory":2,"la1":30.2991,"la2":30.254,"lo1":-89.0895,"lo2":-89.0444,"dy":0.0017,"dx":0.0017,"nx":28,"ny":28,"refTime":"2024-04-21T21:00:00:Z","depth":"2","parameterNumber":3,"parameterNumberName":"V-component_of_CURRENTS"},"data":[0,0,0,0,0,0,0,0,0,0,0,0,0,0,0,0,0,0,0,0,0,0,0,0,0,0,0,0,0,0,0,0,0,0,0,0,0,0,0,0,0,0,0,0,0,0,0,0,0,0,0,0,0,0,0,0,0,0,-0.0102,-0.0102,0,-0.0159,-0.0159,-0.016,-0.0206,-0.0207,-0.0207,-0.0207,-0.0321,-0.0324,-0.0327,0,0,0,0,0,0,0,0,0,0,0,0,0,-0.0094,-0.0093,-0.0102,-0.0102,-0.0103,-0.0158,-0.0159,-0.016,-0.0206,-0.0207,-0.0207,-0.0207,-0.032,-0.0324,-0.0327,0,0,0,0,0,0,0,0,0,0,0,0,0,-0.012,-0.0093,-0.0102,-0.0131,-0.0135,-0.0158,-0.0159,-0.016,-0.0206,-0.0207,-0.0207,-0.0208,-0.0319,-0.0323,-0.0327,-0.0342,0,0,-0.034,-0.0342,0,0,0,0,0,0,0,0,-0.0118,-0.012,-0.0127,-0.0129,-0.0133,-0.0174,-0.0198,-0.0224,-0.0206,-0.0181,-0.0207,-0.0208,-0.0276,-0.0284,-0.0295,-0.0348,-0.0353,-0.034,-0.0343,-0.0344,-0.0346,0,0,0,0,0,0,0,-0.0116,-0.0118,-0.0126,-0.0127,-0.0131,-0.0162,-0.0166,-0.0203,-0.0227,-0.0183,-0.0186,-0.019,-0.0279,-0.0291,-0.0298,-0.0354,-0.034,-0.0344,-0.0346,-0.0348,-0.0428,-0.0428,0,0,0,0,0,0,-0.0102,-0.0116,-0.0124,-0.0127,-0.0125,-0.0162,-0.0166,-0.0162,-0.0226,-0.0235,-0.0189,-0.0191,-0.0283,-0.0293,-0.0302,-0.0325,-0.0344,-0.0348,-0.0351,-0.0429,-0.0428,-0.0428,0,0,0,0,0,0,-0.0102,-0.0102,-0.0122,-0.0123,-0.0127,-0.0161,-0.0156,-0.0163,-0.0174,-0.0229,-0.024,-0.0193,-0.0284,-0.0296,-0.0335,-0.0329,-0.035,-0.0354,-0.0429,-0.0429,-0.0428,-0.0369,0,0,0,0,0,0,-0.0101,-0.0101,-0.0097,-0.0121,-0.0126,-0.0129,-0.0156,-0.0163,-0.0175,-0.0179,-0.0237,-0.0248,-0.0285,-0.0329,-0.0339,-0.0335,-0.0357,-0.0429,-0.0429,-0.0428,-0.0372,-0.0367,-0.0363,0,0,0,0,0,-0.01,-0.0087,-0.0096,-0.0097,-0.0117,-0.0129,-0.0134,-0.0162,-0.0174,-0.0175,-0.0217,-0.0246,-0.0332,-0.0332,-0.0344,-0.0341,-0.043,-0.0429,-0.0428,-0.0374,-0.0368,-0.0363,0,0,0,0,0,0,-0.0081,-0.0091,-0.0101,-0.0092,-0.0107,-0.0136,-0.0138,-0.0156,-0.0189,-0.0194,-0.0247,-0.0261,-0.0292,-0.0324,-0.0322,-0.0362,-0.0384,-0.0385,-0.0338,-0.0333,-0.0328,-0.031,-0.036,0,0,0,0,0,-0.0073,-0.0067,-0.0083,-0.0077,-0.008,-0.0108,-0.0117,-0.0133,-0.0163,-0.0177,-0.0217,-0.026,-0.0298,-0.032,-0.0357,-0.0382,-0.0405,-0.0386,-0.0382,-0.0378,-0.0371,-0.0407,-0.0405,-0.0426,-0.0426,-0.0426,0,0,-0.0065,-0.0069,-0.0067,-0.0073,-0.0087,-0.0085,-0.0115,-0.012,-0.0123,-0.0185,-0.0204,-0.0246,-0.03,-0.0328,-0.0344,-0.0355,-0.0381,-0.0377,-0.0373,-0.0368,-0.0406,-0.0404,-0.0402,-0.0425,-0.0425,-0.0425,0,0,-0.0041,-0.0046,-0.0032,-0.0039,-0.005,-0.0066,-0.0063,-0.0087,-0.0102,-0.0124,-0.0169,-0.0207,-0.0261,-0.03,-0.0327,-0.032,-0.0355,-0.0329,-0.0296,-0.033,-0.0329,-0.0328,-0.0339,-0.0339,-0.0328,-0.0328,-0.0328,0,-0.0032,-0.0015,-0.0032,-0.0019,-0.002,-0.0052,-0.0038,-0.0056,-0.0091,-0.0102,-0.0121,-0.0198,-0.0248,-0.0284,-0.0285,-0.031,-0.0327,-0.0312,-0.0324,-0.0324,-0.0324,-0.0336,-0.0337,-0.0325,-0.0326,-0.0326,-0.0326,0,0.0002,0.0013,0.0023,0.0028,0.0024,0.0032,0.001,0.0002,-0.002,-0.0045,-0.0079,-0.0143,-0.0188,-0.021,-0.0251,-0.0273,-0.0283,-0.0313,-0.0335,-0.0318,-0.0331,-0.0334,-0.0321,-0.0322,-0.0323,-0.0324,0,0,0.0029,0.0044,0.0047,0.0058,0.0052,0.0054,0.0054,0.0042,0.0049,0.0002,0.0004,-0.0077,-0.0109,-0.0142,-0.0193,-0.023,-0.0249,-0.0267,-0.027,-0.0272,-0.0305,-0.0345,-0.0352,-0.0281,-0.0282,-0.0282,-0.0309,0,0.006,0.0097,0.0093,0.012,0.0137,0.0115,0.0121,0.0104,0.0085,0.0079,0.0011,-0.0006,-0.0083,-0.0092,-0.0147,-0.0216,-0.0254,-0.0237,-0.0326,-0.0328,-0.0363,-0.0357,-0.0315,-0.0339,-0.0311,-0.0312,-0.0312,0,0.0095,0.0115,0.0156,0.0173,0.0179,0.0192,0.0201,0.0203,0.0182,0.0171,0.0133,0.0089,0.0032,-0.0028,-0.0148,-0.0131,-0.0214,-0.0274,-0.0277,-0.0337,-0.0374,-0.0356,-0.0345,-0.0317,-0.0316,-0.0316,-0.0316,0,0.0126,0.0157,0.0192,0.0199,0.0216,0.0231,0.024,0.0232,0.0261,0.0243,0.0276,0.0176,0.0167,0.0038,-0.0096,-0.0118,-0.0217,-0.0264,-0.0377,-0.038,-0.0374,-0.0376,-0.0351,-0.0351,-0.0351,-0.0351,-0.0351,0,0.0162,0.0187,0.0214,0.0235,0.028,0.0277,0.0334,0.0324,0.0358,0.0412,0.0335,0.0363,0.0183,0.0104,-0.0051,-0.0212,-0.0187,-0.0366,-0.0395,-0.0352,-0.0351,-0.0362,-0.0362,-0.0352,-0.0351,-0.0351,-0.0351,0,0.019,0.0207,0.0252,0.0286,0.0301,0.0337,0.0415,0.0469,0.0485,0.0565,0.0578,0.0519,0.04,0.0217,0.0024,-0.0128,-0.0292,-0.0358,-0.0286,-0.0307,-0.0441,-0.0438,-0.0488,-0.049,-0.0491,-0.0492,-0.0493,0,0.0211,0.0238,0.0296,0.0344,0.0366,0.0431,0.0494,0.0527,0.0603,0.0663,0.0716,0.0637,0.0578,0.0287,0.0004,-0.0263,-0.0304,-0.0394,-0.0452,-0.0435,-0.0457,-0.0452,-0.0448,-0.0406,-0.0406,-0.0407,-0.0407,0,0.0252,0.0275,0.0316,0.0416,0.049,0.0576,0.0667,0.0745,0.0807,0.086,0.0905,0.0864,0.0601,0.033,-0.0027,-0.021,-0.0356,-0.041,-0.0399,-0.039,-0.0364,-0.0384,-0.0381,-0.0408,-0.0408,-0.0408,-0.0408,-0.0408,0.029,0.0331,0.0405,0.0492,0.0603,0.0727,0.077,0.0844,0.0936,0.0984,0.1009,0.095,0.0676,0.02,-0.0085,-0.0378,-0.0397,-0.0496,-0.0493,-0.049,-0.0488,-0.0468,-0.0529,-0.0529,-0.053,-0.053,-0.053,0,0.033,0.0394,0.0485,0.0608,0.0716,0.0779,0.0894,0.0892,0.0932,0.1034,0.1023,0.0824,0.0556,0.0264,-0.0168,-0.0447,-0.0454,-0.0527,-0.0462,-0.0459,-0.0457,-0.0451,-0.0483,-0.0484,-0.0484,-0.0485,0,0,0.0361,0.0432,0.0471,0.0659,0.0781,0.0864,0.0907,0.0889,0.0921,0.0952,0.0977,0.0949,0.0658,0.035,-0.0012,-0.0233,-0.0286,-0.0286,-0.0297,-0.0176,-0.017,-0.0417,-0.0403,0,0,0,0,0]}],[{"header":{"parameterUnit":"m.s-1","parameterCategory":2,"la1":30.2991,"la2":30.254,"lo1":-89.0895,"lo2":-89.0444,"dy":0.0017,"dx":0.0017,"nx":28,"ny":28,"refTime":"2024-04-21T21:00:00:Z","depth":"4","parameterNumber":2,"parameterNumberName":"U-component_of_CURRENTS"},"data":[0,0,0,0,0,0,0,0,0,0,0,0,0,0,0,0,0,0,0,0,0,0,0,0,0,0,0,0,0,0,0,0,0,0,0,0,0,0,0,0,0,0,0,0,0,0,0,0,0,0,0,0,0,0,0,0,0,0,0.1247,0.1248,0,0.1306,0.1306,0.1307,0.1345,0.1346,0.1347,0.1347,0.1353,0.1352,0.1352,0,0,0,0,0,0,0,0,0,0,0,0,0,0.1112,0.1114,0.1247,0.1248,0.1249,0.1306,0.1306,0.1307,0.1345,0.1346,0.1347,0.1348,0.1353,0.1352,0.1352,0,0,0,0,0,0,0,0,0,0,0,0,0,0.1167,0.1115,0.1247,0.1278,0.1282,0.1306,0.1306,0.1307,0.1345,0.1346,0.1347,0.1348,0.1353,0.1352,0.1352,0.1328,0,0,0.135,0.1349,0,0,0,0,0,0,0,0,0.1164,0.1171,0.1272,0.1276,0.128,0.1323,0.1261,0.1313,0.1345,0.1317,0.1347,0.1348,0.134,0.134,0.1344,0.1329,0.1329,0.135,0.1349,0.1349,0.1349,0,0,0,0,0,0,0,0.116,0.1169,0.1266,0.1274,0.1279,0.1271,0.128,0.1271,0.1318,0.1319,0.1323,0.1336,0.1341,0.1345,0.1344,0.1329,0.135,0.1349,0.1349,0.1348,0.1383,0.1384,0,0,0,0,0,0,0.1163,0.1165,0.1264,0.1268,0.1228,0.1273,0.1283,0.1305,0.1319,0.1324,0.1335,0.1338,0.1345,0.1345,0.1345,0.1397,0.1349,0.1348,0.1348,0.1381,0.1383,0.1385,0,0,0,0,0,0,0.116,0.1172,0.1262,0.1221,0.1232,0.1275,0.1299,0.1306,0.134,0.1333,0.1336,0.1367,0.1346,0.1346,0.1364,0.1394,0.1348,0.1347,0.138,0.1382,0.1384,0.1451,0,0,0,0,0,0,0.1156,0.1171,0.1192,0.1221,0.1235,0.1294,0.1299,0.1306,0.1347,0.1351,0.136,0.136,0.1347,0.1365,0.1363,0.1393,0.1347,0.1378,0.1381,0.1383,0.1447,0.1455,0.1461,0,0,0,0,0,0.1151,0.1172,0.1193,0.1206,0.1263,0.1295,0.1301,0.1331,0.1348,0.1364,0.1375,0.1362,0.138,0.1366,0.1363,0.1393,0.1377,0.138,0.1383,0.1444,0.1453,0.1461,0,0,0,0,0,0,0.112,0.1179,0.1203,0.1241,0.1277,0.1304,0.1325,0.1347,0.1369,0.138,0.1372,0.1372,0.1403,0.1387,0.1371,0.1411,0.1379,0.1381,0.1425,0.1434,0.1442,0.1442,0.1346,0,0,0,0,0,0.1126,0.1161,0.121,0.1241,0.1264,0.1301,0.1322,0.1347,0.1369,0.1382,0.1391,0.1399,0.1408,0.1414,0.1415,0.1429,0.1435,0.1449,0.1457,0.1463,0.1463,0.1504,0.1516,0.1394,0.1394,0.1394,0,0,0.112,0.116,0.1178,0.1238,0.1268,0.13,0.1316,0.1358,0.1386,0.1376,0.1416,0.1426,0.1419,0.1443,0.1455,0.1436,0.1504,0.1467,0.1472,0.1468,0.1509,0.152,0.1531,0.1396,0.1396,0.1396,0,0,0.1118,0.1167,0.1195,0.1231,0.1291,0.1314,0.1335,0.1384,0.1411,0.1447,0.1453,0.1483,0.1491,0.1498,0.1499,0.1545,0.1544,0.1553,0.1587,0.1628,0.1639,0.1648,0.1684,0.1696,0.1554,0.1554,0.1554,0,0.1111,0.1159,0.1205,0.1242,0.1272,0.1325,0.1356,0.1388,0.1436,0.146,0.1469,0.1518,0.1515,0.1546,0.1568,0.1562,0.1586,0.1554,0.1639,0.1648,0.1656,0.169,0.1702,0.1558,0.1557,0.1557,0.1557,0,0.1124,0.1174,0.1194,0.1261,0.1294,0.1333,0.1386,0.1426,0.1468,0.1501,0.156,0.1573,0.1603,0.1613,0.1603,0.1663,0.1664,0.1647,0.1617,0.1672,0.1705,0.1717,0.1563,0.1562,0.1561,0.156,0,0,0.1079,0.1184,0.1194,0.1234,0.1312,0.134,0.1391,0.145,0.1497,0.155,0.1608,0.1637,0.1671,0.1674,0.1684,0.1715,0.1799,0.1712,0.1713,0.1749,0.1902,0.1787,0.1789,0.1808,0.181,0.1812,0.1907,0,0.1079,0.115,0.1198,0.1261,0.1302,0.1363,0.1406,0.1467,0.1525,0.1595,0.1637,0.1699,0.1688,0.1727,0.1759,0.1796,0.1831,0.1775,0.1841,0.1843,0.1735,0.1798,0.1818,0.1915,0.1918,0.192,0.1921,0,0.1069,0.1127,0.1189,0.1282,0.1305,0.1347,0.1433,0.1484,0.1582,0.1633,0.1705,0.1753,0.1827,0.1808,0.1899,0.1872,0.1893,0.1909,0.1913,0.1786,0.1748,0.1845,0.1941,0.194,0.1938,0.1937,0.1936,0,0.1014,0.1114,0.1166,0.1198,0.1308,0.1347,0.1405,0.1498,0.1559,0.1677,0.1741,0.1826,0.1896,0.1939,0.1985,0.1961,0.2076,0.2042,0.1953,0.1946,0.1991,0.198,0.2096,0.2095,0.2095,0.2095,0.2095,0,0.0984,0.103,0.1154,0.1187,0.1254,0.1335,0.1416,0.1484,0.1601,0.1683,0.1772,0.1846,0.1936,0.201,0.2026,0.2033,0.2115,0.1969,0.1964,0.2018,0.2009,0.2,0.1987,0.2099,0.2098,0.2097,0.2096,0,0.091,0.0994,0.1063,0.1188,0.1234,0.128,0.1425,0.1485,0.1603,0.1716,0.1766,0.1898,0.1989,0.2054,0.2137,0.2079,0.2097,0.2073,0.2146,0.2142,0.193,0.192,0.1983,0.198,0.1977,0.1975,0.1973,0,0.0867,0.09,0.105,0.1101,0.1165,0.1262,0.1333,0.147,0.154,0.1733,0.1776,0.1917,0.1989,0.2015,0.2081,0.2108,0.2072,0.2069,0.197,0.193,0.192,0.1915,0.1909,0.1968,0.1968,0.1967,0.1966,0,0.0773,0.0844,0.0915,0.1039,0.1123,0.1216,0.1331,0.1369,0.1533,0.1659,0.1755,0.1813,0.1905,0.1952,0.1988,0.1997,0.2064,0.2039,0.2043,0.1951,0.1914,0.1905,0.1902,0.1957,0.1958,0.1959,0.196,0,0.0684,0.0731,0.085,0.0955,0.1064,0.1146,0.1214,0.1314,0.1402,0.1603,0.1636,0.1776,0.1899,0.1898,0.1936,0.1935,0.189,0.1815,0.183,0.1841,0.1747,0.1676,0.1652,0,0,0,0,0,0.0591,0.0668,0.0758,0.0877,0.0991,0.1067,0.1208,0.1279,0.143,0.1461,0.1547,0.1627,0.1693,0.176,0.1726,0.1858,0.1887,0.181,0.1805,0.1904,0.1915,0.1814,0,0,0,0,0,0,0.0532,0.0618,0.0724,0.0804,0.087,0.0986,0.1071,0.1177,0.1199,0.1354,0.1394,0.1522,0.1599,0.169,0.1691,0.1711,0.1674,0.1897,0.1893,0.1898,0.1908,0.1917,0.1817,0,0,0,0,0]},{"header":{"parameterUnit":"m.s-1","parameterCategory":2,"la1":30.2991,"la2":30.254,"lo1":-89.0895,"lo2":-89.0444,"dy":0.0017,"dx":0.0017,"nx":28,"ny":28,"refTime":"2024-04-21T21:00:00:Z","depth":"4","parameterNumber":3,"parameterNumberName":"V-component_of_CURRENTS"},"data":[0,0,0,0,0,0,0,0,0,0,0,0,0,0,0,0,0,0,0,0,0,0,0,0,0,0,0,0,0,0,0,0,0,0,0,0,0,0,0,0,0,0,0,0,0,0,0,0,0,0,0,0,0,0,0,0,0,0,-0.0071,-0.0071,0,-0.0107,-0.0108,-0.0108,-0.0142,-0.0142,-0.0142,-0.0143,-0.0206,-0.0208,-0.0209,0,0,0,0,0,0,0,0,0,0,0,0,0,-0.0075,-0.0074,-0.0071,-0.0071,-0.0072,-0.0107,-0.0108,-0.0108,-0.0142,-0.0142,-0.0142,-0.0143,-0.0206,-0.0208,-0.0209,0,0,0,0,0,0,0,0,0,0,0,0,0,-0.0089,-0.0074,-0.0071,-0.0092,-0.0094,-0.0107,-0.0108,-0.0108,-0.0142,-0.0142,-0.0143,-0.0143,-0.0205,-0.0207,-0.0209,-0.0212,0,0,-0.0216,-0.0217,0,0,0,0,0,0,0,0,-0.0088,-0.0089,-0.0089,-0.0091,-0.0093,-0.012,-0.0132,-0.0144,-0.0141,-0.0124,-0.0143,-0.0143,-0.0179,-0.0183,-0.019,-0.0215,-0.0218,-0.0216,-0.0217,-0.0218,-0.0219,0,0,0,0,0,0,0,-0.0087,-0.0088,-0.0086,-0.0089,-0.0092,-0.0115,-0.0117,-0.0135,-0.015,-0.0126,-0.0128,-0.0131,-0.0181,-0.0188,-0.0192,-0.0219,-0.0216,-0.0218,-0.0219,-0.022,-0.0269,-0.0269,0,0,0,0,0,0,-0.0078,-0.0086,-0.0085,-0.0087,-0.0091,-0.0114,-0.0117,-0.0111,-0.0149,-0.0155,-0.013,-0.0132,-0.0184,-0.0189,-0.0194,-0.0195,-0.0218,-0.022,-0.0221,-0.0269,-0.0269,-0.0269,0,0,0,0,0,0,-0.0078,-0.0077,-0.0083,-0.0088,-0.009,-0.0113,-0.0107,-0.0112,-0.0121,-0.0152,-0.0158,-0.0135,-0.0184,-0.0191,-0.0211,-0.0198,-0.0221,-0.0223,-0.0269,-0.0269,-0.0269,-0.02,0,0,0,0,0,0,-0.0077,-0.0076,-0.0074,-0.0086,-0.0089,-0.0086,-0.0107,-0.0112,-0.0122,-0.0125,-0.0158,-0.0164,-0.0185,-0.0208,-0.0213,-0.0201,-0.0224,-0.0269,-0.0269,-0.0269,-0.0202,-0.0198,-0.0194,0,0,0,0,0,-0.0077,-0.0065,-0.0074,-0.0074,-0.0083,-0.0085,-0.0089,-0.0108,-0.0121,-0.012,-0.0146,-0.0164,-0.0212,-0.0209,-0.0216,-0.0204,-0.0268,-0.0269,-0.0269,-0.0204,-0.0199,-0.0194,0,0,0,0,0,0,-0.0068,-0.0067,-0.0077,-0.0067,-0.0075,-0.0091,-0.0092,-0.0106,-0.0125,-0.013,-0.0162,-0.017,-0.0185,-0.0207,-0.0203,-0.0221,-0.0244,-0.0245,-0.0193,-0.0188,-0.0184,-0.016,-0.0226,0,0,0,0,0,-0.0064,-0.0054,-0.0062,-0.0056,-0.0057,-0.0076,-0.0081,-0.0091,-0.0108,-0.0117,-0.0141,-0.0169,-0.0189,-0.0199,-0.0223,-0.0228,-0.0257,-0.0228,-0.0224,-0.022,-0.0206,-0.024,-0.0237,-0.0269,-0.0269,-0.0269,0,0,-0.006,-0.0059,-0.0055,-0.0054,-0.0063,-0.0053,-0.008,-0.0081,-0.0073,-0.0121,-0.0123,-0.0156,-0.019,-0.0198,-0.0206,-0.0214,-0.0229,-0.022,-0.0216,-0.0205,-0.0239,-0.0236,-0.0233,-0.0269,-0.0269,-0.0269,0,0,-0.0039,-0.0045,-0.0026,-0.0027,-0.0031,-0.0039,-0.0037,-0.005,-0.0056,-0.0064,-0.0097,-0.0119,-0.0152,-0.0167,-0.0181,-0.0169,-0.0209,-0.0184,-0.0136,-0.0168,-0.0166,-0.0163,-0.0205,-0.0207,-0.0177,-0.0177,-0.0177,0,-0.0037,-0.0013,-0.0024,-0.0005,-0.0,-0.0028,-0.0007,-0.0014,-0.0033,-0.0032,-0.0057,-0.0102,-0.0133,-0.0134,-0.0133,-0.0156,-0.0188,-0.0148,-0.0161,-0.0159,-0.0158,-0.0201,-0.0204,-0.0174,-0.0174,-0.0174,-0.0175,0,0.0004,0.0018,0.0029,0.0045,0.0049,0.006,0.0055,0.0056,0.0038,0.0026,0.0013,-0.0032,-0.0057,-0.0072,-0.0098,-0.0101,-0.0132,-0.0154,-0.0167,-0.015,-0.0198,-0.0202,-0.0169,-0.017,-0.0171,-0.0172,0,0,0.0018,0.0052,0.0054,0.0071,0.0078,0.0087,0.0107,0.0116,0.0128,0.0099,0.0106,0.0069,0.0036,0.0018,-0.002,-0.0043,-0.0071,-0.0089,-0.0093,-0.0119,-0.0153,-0.0171,-0.0178,-0.0097,-0.0097,-0.0097,-0.0192,0,0.0049,0.01,0.0108,0.0146,0.0169,0.0162,0.0185,0.0188,0.0173,0.017,0.0132,0.0112,0.0074,0.0054,0.0029,-0.0051,-0.0078,-0.0044,-0.0175,-0.0179,-0.0187,-0.0182,-0.0097,-0.0195,-0.0197,-0.0197,-0.0198,0,0.0085,0.0115,0.0166,0.0204,0.0214,0.0233,0.0259,0.0274,0.0267,0.0254,0.0233,0.0188,0.0153,0.0109,0.0008,0.0028,-0.005,-0.011,-0.0116,-0.0155,-0.0204,-0.0217,-0.0206,-0.0206,-0.0205,-0.0204,-0.0204,0,0.0104,0.0152,0.0196,0.0209,0.0249,0.0273,0.0288,0.0297,0.031,0.0298,0.0286,0.0244,0.0197,0.0118,-0.0011,-0.0006,-0.0138,-0.015,-0.0236,-0.0239,-0.0224,-0.0225,-0.0215,-0.0215,-0.0215,-0.0215,-0.0215,0,0.0134,0.0162,0.0209,0.0233,0.0283,0.0299,0.034,0.035,0.0356,0.0361,0.0322,0.0297,0.0193,0.0101,0.0003,-0.0135,-0.0132,-0.0223,-0.0259,-0.0196,-0.0193,-0.0228,-0.0228,-0.0218,-0.0218,-0.0217,-0.0216,0,0.0133,0.017,0.0218,0.0274,0.0294,0.0324,0.0369,0.0389,0.0392,0.0393,0.0385,0.032,0.0202,0.0088,-0.0064,-0.0134,-0.0253,-0.0305,-0.0237,-0.027,-0.0334,-0.033,-0.0392,-0.0394,-0.0395,-0.0396,-0.0397,0,0.0132,0.016,0.0237,0.0267,0.029,0.0338,0.037,0.0403,0.0415,0.0397,0.0386,0.0288,0.0228,0.0014,-0.0109,-0.0286,-0.0313,-0.037,-0.033,-0.032,-0.035,-0.0344,-0.0338,-0.0398,-0.0399,-0.0399,-0.0399,0,0.0108,0.0139,0.0174,0.024,0.0285,0.0346,0.0386,0.0403,0.0426,0.0438,0.0387,0.029,0.0152,0.0006,-0.0142,-0.0267,-0.0321,-0.0381,-0.0379,-0.0343,-0.0328,-0.0355,-0.0349,-0.0403,-0.0402,-0.0402,-0.0402,0,0.007,0.0079,0.0122,0.0182,0.0243,0.0301,0.0357,0.0374,0.0398,0.0399,0.0377,0.0256,0.0199,0.0011,-0.0125,-0.0247,-0.0268,-0.0289,-0.0292,-0.0289,-0.0227,-0.0191,-0.025,0,0,0,0,0,0.0014,0.0009,0.0055,0.012,0.0189,0.0235,0.0324,0.0378,0.0419,0.0393,0.0393,0.0276,0.0092,0.0011,-0.0115,-0.0168,-0.0312,-0.0321,-0.0343,-0.0424,-0.042,-0.0365,0,0,0,0,0,0,-0.0032,-0.0018,0.0013,0.0043,0.0087,0.0161,0.023,0.0289,0.0288,0.0324,0.0232,0.023,0.0048,0.0145,-0.0131,-0.0167,-0.0198,-0.0394,-0.0397,-0.0427,-0.0423,-0.0419,-0.0361,0,0,0,0,0]}]]